CAPE
168 83 192 214 179 207 148 70 25 0 0 0 0 0 0 0 0 4 6 11 23 24 15 18 14 12 7 6 0 0 0 0 0 0 0 0 0 0 0 0 0 0 0
163 81 76 67 66 158 163 81 40 3 0 0 0 0 0 0 0 3 5 3 8 26 38 26 28 21 20 8 2 0 0 0 0 0 0 0 0 0 0 0 0 0 0
145 175 78 62 54 63 59 37 33 8 0 0 0 0 0 0 0 0 0 6 1 6 22 40 49 32 28 19 0 0 0 0 0 0 0 0 0 0 0 0 0 0 0
160 163 108 87 58 50 25 23 24 18 7 1 0 0 0 0 0 0 0 0 1 2 0 5 68 77 45 30 16 0 0 0 0 0 0 0 0 0 0 0 0 0 0
179 131 105 71 128 96 27 18 31 13 2 0 0 0 0 0 0 0 0 0 0 0 0 0 0 29 88 62 23 5 0 0 0 0 0 0 0 0 0 0 0 0 0
107 94 80 110 121 173 133 98 108 74 39 15 11 9 8 3 0 0 0 0 0 0 0 0 0 0 7 97 85 55 60 50 40 27 30 6 0 0 0 0 0 0 0
146 196 103 126 153 167 235 200 200 155 97 76 57 61 53 36 17 4 0 0 0 0 0 0 0 4 5 0 84 81 40 30 34 67 55 27 15 0 0 0 0 0 0
81 119 167 144 150 165 208 266 251 210 219 122 199 250 226 63 34 33 29 31 5 2 3 7 2 10 9 1 0 120 47 2 0 0 38 79 63 0 0 0 0 0 0
33 79 166 162 202 215 220 237 244 278 282 211 189 258 213 204 214 68 1 0 4 9 17 7 9 5 15 2 0 2 3 0 0 0 0 65 87 34 0 0 0 0 0
62 69 200 246 273 330 291 293 286 267 322 303 195 181 278 248 163 127 2 2 2 4 8 20 10 0 4 0 0 0 1 1 0 0 0 0 3 75 51 34 31 31 1
129 139 249 273 311 409 316 490 321 372 373 479 248 215 152 195 187 211 164 92 8 0 8 8 11 0 0 0 0 8 1 0 0 0 0 0 0 0 25 60 69 74 79
93 93 123 249 277 254 301 316 356 503 333 430 409 430 279 234 184 164 52 158 67 0 0 14 3 0 0 0 0 3 3 0 1 7 6 2 0 0 0 1 19 57 86
24 35 124 203 180 166 195 218 323 306 360 365 396 439 331 220 39 22 6 78 69 17 19 3 4 3 0 0 0 7 11 7 7 5 6 1 0 0 0 0 0 2 33
42 27 107 149 137 194 202 239 370 239 332 411 436 429 327 110 22 21 16 0 1 23 18 11 0 1 0 0 0 0 2 4 7 2 2 0 0 0 0 0 0 0 0
32 79 130 83 106 129 142 160 261 215 287 499 568 472 202 22 1 25 26 29 31 19 6 0 0 2 1 0 0 4 0 0 0 0 1 0 0 0 0 0 0 0 0
40 73 88 64 96 76 68 101 196 158 218 541 540 300 224 242 106 33 36 37 41 40 29 2 0 0 1 0 6 3 0 0 0 3 0 0 0 0 0 0 0 0 0
10 11 9 19 29 27 64 122 95 82 139 195 99 31 33 48 28 30 19 36 73 58 119 19 19 5 0 1 7 3 0 0 0 0 0 0 0 0 0 0 0 0 0
17 10 4 0 1 22 69 119 171 23 44 8 26 23 11 31 14 14 17 2 48 66 76 8 20 7 0 11 2 0 0 0 0 0 0 0 0 0 0 0 0 0 0
35 33 17 42 34 23 23 44 26 0 0 1 2 4 4 42 28 36 0 14 62 67 49 28 13 0 0 7 3 1 0 3 1 0 0 0 0 0 0 0 0 0 0
0 5 22 8 37 16 8 39 12 1 7 11 7 11 23 48 31 49 53 37 60 43 49 47 14 3 6 0 5 1 0 0 0 0 0 0 0 0 0 0 0 0 0
2 2 3 5 27 13 17 44 4 13 16 11 5 0 44 16 30 60 44 40 50 54 37 0 6 0 2 0 0 0 0 0 0 0 0 0 0 0 0 0 0 0 0
83 77 4 3 13 0 0 0 26 30 37 33 11 19 54 96 82 72 64 12 56 9 42 2 5 9 3 2 0 0 0 0 0 0 0 0 0 0 0 0 0 0 0
26 38 71 80 21 3 3 31 27 44 59 63 116 102 202 58 95 56 4 43 35 30 33 17 4 1 0 0 3 0 2 0 0 0 0 0 0 0 0 0 0 0 0
51 60 36 60 108 111 99 82 66 88 108 83 84 87 96 152 15 146 17 21 16 26 16 4 0 1 2 4 3 1 0 0 0 0 0 0 0 0 0 0 0 0 0
148 119 120 184 186 133 172 136 145 141 107 123 119 169 193 89 159 146 3 1 0 0 1 1 1 2 2 0 0 0 0 0 0 0 0 0 0 0 0 0 0 0 0
187 216 183 181 232 185 148 147 117 139 122 97 145 169 80 120 67 94 26 0 8 16 0 0 2 1 0 0 0 0 0 0 0 0 0 0 0 0 0 0 0 0 10
CIN
-10 -32 -0 -0 -0 -0 -0 -3 -17 -0 -0 -0 -0 -0 -0 -0 -0 -85 -0 -8 -4 -0 -0 -0 -0 -0 -0 -0 -0 -0 -0 -0 -0 -0 -0 -0 -0 -0 -0 -0 -0 -0 -0
-43 -57 -45 -17 -12 -0 -0 -4 -22 -61 -0 -0 -0 -0 -0 -0 -0 -151 -186 -1 -10 -3 -0 -0 -0 -0 -0 -0 -0 -0 -0 -0 -0 -0 -0 -0 -0 -0 -0 -0 -0 -0 -0
-59 -42 -66 -55 -31 -19 -24 -26 -35 -65 -0 -3 -0 -0 -0 -0 -0 -0 -6 -151 -0 -23 -5 -1 -0 -0 -0 -0 -0 -0 -0 -0 -0 -0 -0 -0 -0 -0 -0 -0 -0 -0 -0
-76 -64 -58 -42 -28 -59 -58 -49 -53 -63 -81 -33 -0 -0 -0 -0 -0 -0 -0 -0 -0 -0 -0 -8 -141 -0 -0 -0 -0 -0 -0 -0 -0 -0 -0 -0 -0 -0 -0 -0 -0 -0 -0
-61 -69 -86 -64 -61 -51 -55 -70 -80 -62 -91 -0 -0 -0 -0 -0 -0 -0 -0 -0 -0 -0 -0 -0 -0 -5 -2 -0 -0 -0 -0 -0 -0 -0 -0 -0 -0 -0 -0 -0 -0 -0 -0
-33 -35 -55 -95 -69 -24 -9 -43 -41 -44 -42 -28 -33 -44 -61 -63 -0 -0 -0 -0 -0 -0 -0 -0 -0 -0 -2 -1 -0 -0 -0 -0 -0 -0 -0 -0 -0 -0 -0 -0 -0 -0 -0
-54 -12 -72 -72 -51 -22 -10 -28 -38 -35 -53 -58 -20 -26 -26 -20 -29 -42 -0 -0 -0 -0 -0 -0 -0 -1 -1 -0 -2 -0 -0 -0 -0 -0 -0 -0 -0 -0 -0 -0 -0 -0 -0
-89 -94 -54 -53 -39 -25 -29 -15 -32 -35 -17 -61 -7 -0 -0 -28 -39 -34 -23 -18 -18 -4 -2 -0 -0 -0 -2 -0 -0 -2 -0 -0 -0 -0 -0 -0 -1 -0 -0 -0 -0 -0 -0
-128 -93 -51 -31 -30 -30 -27 -34 -26 -26 -7 -19 -23 -1 -0 -0 -1 -38 -9 -0 -13 -5 -1 -0 -0 -0 -0 -0 -0 -0 -0 -0 -0 -0 -0 -0 -0 -3 -0 -0 -0 -0 -0
-73 -61 -33 -16 -19 -28 -17 -28 -15 -17 -26 -1 -5 -15 -5 -2 -0 -0 -8 -43 -41 -29 -7 -0 -7 -0 -4 -0 -0 -0 -0 -0 -0 -0 -0 -0 -0 -0 -1 -0 -0 -0 -0
-34 -47 -30 -34 -38 -13 -33 -12 -22 -12 -20 -2 -0 -0 -9 -4 -0 -0 -0 -1 -40 -2 -7 -0 -7 -0 -0 -0 -0 -1 -0 -0 -0 -0 -0 -0 -0 -0 -1 -0 -0 -0 -0
-36 -60 -54 -50 -44 -47 -40 -32 -7 -7 -9 -5 -2 -0 -0 -0 -0 -0 -5 -0 -0 -0 -0 -9 -4 -0 -0 -0 -0 -1 -0 -0 -1 -1 -1 -1 -0 -0 -0 -1 -0 -0 -0
-43 -47 -23 -14 -29 -38 -47 -44 -6 -6 -5 -1 -0 -1 -0 -5 -24 -8 -0 -1 -0 -0 -0 -7 -5 -3 -0 -0 -1 -3 -0 -6 -0 -0 -0 -0 -0 -0 -0 -0 -0 -0 -0
-26 -61 -38 -31 -38 -26 -13 -13 -0 -0 -0 -0 -0 -0 -4 -29 -39 -18 -8 -0 -0 -0 -1 -2 -2 -2 -6 -0 -2 -0 -2 -1 -0 -0 -1 -0 -0 -0 -0 -0 -0 -0 -0
-34 -30 -23 -56 -60 -17 -9 -8 -0 -1 -0 -0 -0 -0 -19 -55 -0 -1 -4 -0 -0 -0 -4 -0 -0 -4 -0 -0 -0 -1 -0 -0 -0 -0 -0 -0 -0 -0 -0 -0 -0 -0 -0
-2 -0 -3 -11 -5 -12 -10 -1 -2 -4 -0 -0 -0 -1 -3 -10 -12 -43 -14 -7 -9 -0 -0 -0 -0 -0 -0 -0 -0 -0 -4 -0 -0 -1 -0 -0 -0 -0 -0 -0 -0 -0 -0
-2 -1 -7 -16 -7 -4 -0 -1 -2 -0 -0 -0 -11 -25 -12 -22 -1 -7 -1 -3 -0 -0 -0 -0 -3 -1 -0 -0 -0 -4 -0 -0 -0 -0 -0 -0 -0 -0 -0 -0 -0 -0 -0
-108 -80 -40 -0 -0 -0 -14 -0 -0 -27 -9 -2 -23 -23 -15 -29 -6 -0 -0 -0 -0 -0 -0 -0 -11 -10 -1 -0 -1 -0 -0 -0 -0 -0 -0 -0 -0 -0 -0 -0 -0 -0 -0
-164 -135 -128 -81 -75 -62 -48 -26 -45 -1 -0 -0 -0 -0 -12 -1 -1 -0 -0 -5 -0 -0 -0 -0 -1 -0 -0 -0 -0 -0 -0 -0 -2 -0 -0 -0 -0 -0 -0 -0 -0 -0 -0
-0 -189 -129 -66 -96 -98 -72 -34 -24 -9 -1 -2 -2 -4 -1 -2 -0 -0 -0 -0 -0 -1 -0 -0 -1 -0 -0 -0 -0 -0 -0 -0 -0 -0 -0 -0 -0 -0 -0 -0 -0 -0 -0
-0 -0 -38 -71 -99 -99 -42 -70 -96 -58 -2 -1 -0 -0 -6 -9 -3 -1 -0 -4 -4 -0 -1 -1 -0 -0 -0 -0 -0 -0 -0 -0 -0 -0 -0 -0 -0 -0 -0 -0 -0 -0 -0
-33 -23 -15 -0 -100 -0 -0 -0 -12 -0 -5 -10 -1 -3 -2 -0 -5 -0 -0 -1 -0 -6 -4 -9 -0 -0 -0 -0 -0 -0 -0 -0 -0 -0 -0 -0 -0 -0 -0 -0 -0 -0 -0
-67 -53 -29 -21 -9 -11 -7 -6 -4 -16 -6 -13 -10 -10 -0 -2 -0 -0 -0 -14 -10 -16 -20 -6 -0 -0 -0 -0 -0 -0 -0 -0 -0 -0 -0 -0 -0 -0 -0 -0 -0 -0 -0
-204 -218 -74 -45 -17 -19 -33 -35 -30 -13 -9 -12 -23 -15 -8 -0 -15 -0 -13 -13 -8 -0 -4 -3 -0 -0 -0 -0 -1 -1 -0 -0 -0 -0 -0 -0 -0 -0 -0 -0 -0 -0 -0
-193 -186 -45 -41 -56 -43 -45 -44 -29 -17 -15 -4 -1 -3 -0 -1 -0 -0 -53 -0 -0 -0 -0 -0 -0 -0 -0 -0 -0 -0 -0 -0 -0 -0 -0 -0 -0 -0 -0 -0 -0 -0 -0
-81 -53 -104 -82 -63 -57 -58 -43 -39 -21 -11 -10 -7 -0 -2 -0 -1 -1 -3 -0 -0 -4 -1 -0 -0 -0 -0 -0 -0 -0 -0 -0 -0 -0 -0 -0 -0 -0 -0 -0 -0 -0 -0
Wind_Speed
44 nan 37 33 30 25 23 nan nan nan nan nan nan nan nan nan nan nan nan nan nan nan nan nan nan nan nan nan nan nan nan nan nan nan nan nan nan nan nan nan nan nan nan
34 nan nan nan nan 25 26 nan nan nan nan nan nan nan nan nan nan nan nan nan nan nan nan nan nan nan nan nan nan nan nan nan nan nan nan nan nan nan nan nan nan nan nan
34 39 nan nan nan nan nan nan nan nan nan nan nan nan nan nan nan nan nan nan nan nan nan nan nan nan nan nan nan nan nan nan nan nan nan nan nan nan nan nan nan nan nan
33 43 41 nan nan nan nan nan nan nan nan nan nan nan nan nan nan nan nan nan nan nan nan nan nan nan nan nan nan nan nan nan nan nan nan nan nan nan nan nan nan nan nan
26 38 40 nan 31 nan nan nan nan nan nan nan nan nan nan nan nan nan nan nan nan nan nan nan nan nan nan nan nan nan nan nan nan nan nan nan nan nan nan nan nan nan nan
16 nan nan 29 26 22 21 nan 29 nan nan nan nan nan nan nan nan nan nan nan nan nan nan nan nan nan nan nan nan nan nan nan nan nan nan nan nan nan nan nan nan nan nan
14 14 22 22 19 18 23 26 30 29 nan nan nan nan nan nan nan nan nan nan nan nan nan nan nan nan nan nan nan nan nan nan nan nan nan nan nan nan nan nan nan nan nan
nan 18 19 19 18 21 26 24 28 29 21 17 17 20 18 nan nan nan nan nan nan nan nan nan nan nan nan nan nan 39 nan nan nan nan nan nan nan nan nan nan nan nan nan
nan nan 21 22 23 25 27 23 23 21 14 14 8 10 19 17 22 nan nan nan nan nan nan nan nan nan nan nan nan nan nan nan nan nan nan nan nan nan nan nan nan nan nan
nan nan 21 24 27 31 27 23 17 12 9 14 18 10 14 20 22 22 nan nan nan nan nan nan nan nan nan nan nan nan nan nan nan nan nan nan nan nan nan nan nan nan nan
21 24 23 27 31 31 21 12 13 13 15 14 18 19 18 17 17 20 20 nan nan nan nan nan nan nan nan nan nan nan nan nan nan nan nan nan nan nan nan nan nan nan nan
nan nan 26 26 28 19 16 19 13 12 13 17 20 19 21 23 24 24 nan 22 nan nan nan nan nan nan nan nan nan nan nan nan nan nan nan nan nan nan nan nan nan nan nan
nan nan 10 10 15 18 20 19 13 18 19 21 16 22 25 23 nan nan nan nan nan nan nan nan nan nan nan nan nan nan nan nan nan nan nan nan nan nan nan nan nan nan nan
nan nan 7 10 12 11 10 10 14 18 19 21 21 26 26 27 nan nan nan nan nan nan nan nan nan nan nan nan nan nan nan nan nan nan nan nan nan nan nan nan nan nan nan
nan nan 10 nan 11 10 10 13 16 16 20 20 23 24 25 nan nan nan nan nan nan nan nan nan nan nan nan nan nan nan nan nan nan nan nan nan nan nan nan nan nan nan nan
nan nan nan nan nan nan nan 12 15 17 21 25 30 30 29 31 35 nan nan nan nan nan nan nan nan nan nan nan nan nan nan nan nan nan nan nan nan nan nan nan nan nan nan
nan nan nan nan nan nan nan 18 nan nan 26 30 nan nan nan nan nan nan nan nan nan nan 41 nan nan nan nan nan nan nan nan nan nan nan nan nan nan nan nan nan nan nan nan
nan nan nan nan nan nan nan 19 22 nan nan nan nan nan nan nan nan nan nan nan nan nan nan nan nan nan nan nan nan nan nan nan nan nan nan nan nan nan nan nan nan nan nan
nan nan nan nan nan nan nan nan nan nan nan nan nan nan nan nan nan nan nan nan nan nan nan nan nan nan nan nan nan nan nan nan nan nan nan nan nan nan nan nan nan nan nan
nan nan nan nan nan nan nan nan nan nan nan nan nan nan nan nan nan nan nan nan nan nan nan nan nan nan nan nan nan nan nan nan nan nan nan nan nan nan nan nan nan nan nan
nan nan nan nan nan nan nan nan nan nan nan nan nan nan nan nan nan nan nan nan nan nan nan nan nan nan nan nan nan nan nan nan nan nan nan nan nan nan nan nan nan nan nan
nan nan nan nan nan nan nan nan nan nan nan nan nan nan nan nan nan nan nan nan nan nan nan nan nan nan nan nan nan nan nan nan nan nan nan nan nan nan nan nan nan nan nan
nan nan nan nan nan nan nan nan nan nan nan nan 43 47 49 nan nan nan nan nan nan nan nan nan nan nan nan nan nan nan nan nan nan nan nan nan nan nan nan nan nan nan nan
nan nan nan nan 27 26 nan nan nan nan 43 nan nan nan nan 57 nan 66 nan nan nan nan nan nan nan nan nan nan nan nan nan nan nan nan nan nan nan nan nan nan nan nan nan
35 34 32 31 32 38 40 44 47 49 51 54 55 56 61 nan 71 75 nan nan nan nan nan nan nan nan nan nan nan nan nan nan nan nan nan nan nan nan nan nan nan nan nan
46 49 51 48 48 48 49 52 54 53 57 nan 61 64 nan 72 nan nan nan nan nan nan nan nan nan nan nan nan nan nan nan nan nan nan nan nan nan nan nan nan nan nan nan
Wind_Direction
225 nan 232 232 240 248 257 nan nan nan nan nan nan nan nan nan nan nan nan nan nan nan nan nan nan nan nan nan nan nan nan nan nan nan nan nan nan nan nan nan nan nan nan
243 nan nan nan nan 247 257 nan nan nan nan nan nan nan nan nan nan nan nan nan nan nan nan nan nan nan nan nan nan nan nan nan nan nan nan nan nan nan nan nan nan nan nan
244 231 nan nan nan nan nan nan nan nan nan nan nan nan nan nan nan nan nan nan nan nan nan nan nan nan nan nan nan nan nan nan nan nan nan nan nan nan nan nan nan nan nan
250 249 224 nan nan nan nan nan nan nan nan nan nan nan nan nan nan nan nan nan nan nan nan nan nan nan nan nan nan nan nan nan nan nan nan nan nan nan nan nan nan nan nan
261 237 226 nan 236 nan nan nan nan nan nan nan nan nan nan nan nan nan nan nan nan nan nan nan nan nan nan nan nan nan nan nan nan nan nan nan nan nan nan nan nan nan nan
252 nan nan 246 249 244 245 nan 257 nan nan nan nan nan nan nan nan nan nan nan nan nan nan nan nan nan nan nan nan nan nan nan nan nan nan nan nan nan nan nan nan nan nan
233 262 248 250 247 246 249 258 262 271 nan nan nan nan nan nan nan nan nan nan nan nan nan nan nan nan nan nan nan nan nan nan nan nan nan nan nan nan nan nan nan nan nan
nan 252 257 254 258 255 262 268 278 273 262 269 256 249 251 nan nan nan nan nan nan nan nan nan nan nan nan nan nan 318 nan nan nan nan nan nan nan nan nan nan nan nan nan
nan nan 254 249 253 255 258 270 279 275 259 259 255 227 251 250 255 nan nan nan nan nan nan nan nan nan nan nan nan nan nan nan nan nan nan nan nan nan nan nan nan nan nan
nan nan 264 260 260 256 261 264 256 227 210 255 267 258 238 237 257 263 nan nan nan nan nan nan nan nan nan nan nan nan nan nan nan nan nan nan nan nan nan nan nan nan nan
259 256 259 260 265 258 260 241 242 233 229 244 262 259 263 262 268 268 272 nan nan nan nan nan nan nan nan nan nan nan nan nan nan nan nan nan nan nan nan nan nan nan nan
nan nan 256 265 266 253 237 214 218 247 253 248 257 264 274 277 278 277 nan 278 nan nan nan nan nan nan nan nan nan nan nan nan nan nan nan nan nan nan nan nan nan nan nan
nan nan 246 236 232 241 232 224 221 237 244 257 274 280 280 278 nan nan nan nan nan nan nan nan nan nan nan nan nan nan nan nan nan nan nan nan nan nan nan nan nan nan nan
nan nan 255 249 255 253 267 257 238 246 265 268 281 279 274 275 nan nan nan nan nan nan nan nan nan nan nan nan nan nan nan nan nan nan nan nan nan nan nan nan nan nan nan
nan nan 312 nan 287 302 298 289 271 270 267 273 273 269 271 nan nan nan nan nan nan nan nan nan nan nan nan nan nan nan nan nan nan nan nan nan nan nan nan nan nan nan nan
nan nan nan nan nan nan nan 279 267 267 274 272 267 272 275 273 278 nan nan nan nan nan nan nan nan nan nan nan nan nan nan nan nan nan nan nan nan nan nan nan nan nan nan
nan nan nan nan nan nan nan 278 nan nan 275 267 nan nan nan nan nan nan nan nan nan nan 290 nan nan nan nan nan nan nan nan nan nan nan nan nan nan nan nan nan nan nan nan
nan nan nan nan nan nan nan 282 284 nan nan nan nan nan nan nan nan nan nan nan nan nan nan nan nan nan nan nan nan nan nan nan nan nan nan nan nan nan nan nan nan nan nan
nan nan nan nan nan nan nan nan nan nan nan nan nan nan nan nan nan nan nan nan nan nan nan nan nan nan nan nan nan nan nan nan nan nan nan nan nan nan nan nan nan nan nan
nan nan nan nan nan nan nan nan nan nan nan nan nan nan nan nan nan nan nan nan nan nan nan nan nan nan nan nan nan nan nan nan nan nan nan nan nan nan nan nan nan nan nan
nan nan nan nan nan nan nan nan nan nan nan nan nan nan nan nan nan nan nan nan nan nan nan nan nan nan nan nan nan nan nan nan nan nan nan nan nan nan nan nan nan nan nan
nan nan nan nan nan nan nan nan nan nan nan nan nan nan nan nan nan nan nan nan nan nan nan nan nan nan nan nan nan nan nan nan nan nan nan nan nan nan nan nan nan nan nan
nan nan nan nan nan nan nan nan nan nan nan nan 289 287 285 nan nan nan nan nan nan nan nan nan nan nan nan nan nan nan nan nan nan nan nan nan nan nan nan nan nan nan nan
nan nan nan nan 290 290 nan nan nan nan 285 nan nan nan nan 286 nan 288 nan nan nan nan nan nan nan nan nan nan nan nan nan nan nan nan nan nan nan nan nan nan nan nan nan
282 282 276 280 282 276 277 280 280 276 274 272 274 280 282 nan 283 286 nan nan nan nan nan nan nan nan nan nan nan nan nan nan nan nan nan nan nan nan nan nan nan nan nan
272 269 265 263 266 268 273 277 277 274 273 nan 273 273 nan 281 nan nan nan nan nan nan nan nan nan nan nan nan nan nan nan nan nan nan nan nan nan nan nan nan nan nan nan